Flag for Germany Weather past 2 weeks in Fürstenfeldbruck, Bavaria, Germany

Now
52 °F

Sunny.


Feels Like: 50 °F
Forecast: 47 / 60 °F
Wind: 6 mph from South

Location: Oberpfaffenhofen

Current Time: May 22, 2015 at 10:05:42 PM

Latest Report: May 22, 2015 at 6:50 PM


Visibility: 10 mi

Pressure: 30.18 "Hg

Humidity: 82%

Dew point: 46 °F

Location of FürstenfeldbruckLocation

Historic Weather in Fürstenfeldbruck — Graph

°F

Fürstenfeldbruck temperature yesterday

Maximum temperature yesterday: 50 °F (at 2:50 PM)
Minimum temperature yesterday: 43 °F (at 6:50 AM)
Average temperature yesterday: 47 °F

Past Weeks' High & Low Weather Summary

 TemperatureHumidityPressure
High79 °F (May 12, 2:20 PM)100% (May 11, 6:50 AM)30.36 "Hg (May 11, 6:50 AM)
Low41 °F (May 22, 6:50 AM)28% (May 12, 3:20 PM)29.77 "Hg (May 18, 6:20 PM)
Average59 °F71%30.05 "Hg
* Reported May 7 6:20 PM — May 22 6:50 PM, Fürstenfeldbruck, Weather by CustomWeather, © 2015

Note: Actual official high and low records may vary slightly from our data, if they occured in-between our weather recording intervals... More about our weather records

Advertising

Fürstenfeldbruck weather history for previous 24 hours

 ConditionsComfort  
Time TempWeatherWind HumidityBarometerVisibility
6:50 PM
Fri, May 22
52 °FSunny.6 mph82%30.18 "Hg10 mi
6:20 PM52 °FBroken clouds.5 mph82%30.18 "HgN/A
5:50 PM52 °FBroken clouds.7 mph82%30.18 "HgN/A
5:20 PM54 °FScattered clouds.7 mph77%30.18 "HgN/A
4:50 PM54 °FBroken clouds.6 mph72%30.18 "HgN/A
4:20 PM52 °FBroken clouds.5 mph77%30.21 "HgN/A
3:50 PM54 °FBroken clouds.6 mph72%30.21 "HgN/A
3:20 PM54 °FBroken clouds.6 mph72%30.21 "HgN/A
2:50 PM54 °FBroken clouds.5 mph67%30.21 "HgN/A
2:20 PM54 °FBroken clouds.5 mph67%30.24 "HgN/A
1:50 PM52 °FBroken clouds.6 mph72%30.24 "HgN/A
1:20 PM54 °FBroken clouds.3 mph72%30.24 "HgN/A
12:50 PM52 °FBroken clouds.8 mph77%30.24 "HgN/A
12:20 PM54 °FBroken clouds.6 mph72%30.27 "HgN/A
11:50 AM52 °FBroken clouds.8 mph77%30.27 "HgN/A
11:20 AM52 °FBroken clouds.7 mph77%30.27 "HgN/A
10:50 AM50 °FBroken clouds.7 mph82%30.27 "HgN/A
10:20 AM50 °FBroken clouds.5 mph88%30.27 "HgN/A
9:50 AM48 °FPassing clouds.5 mph87%30.27 "HgN/A
9:20 AM48 °FSunny.3 mph87%30.27 "Hg10 mi
8:50 AM46 °FClear.2 mph93%30.27 "Hg6 mi
8:20 AM45 °FClear.2 mph100%30.27 "Hg5 mi
7:50 AM45 °FClear.No wind100%30.27 "Hg6 mi
7:20 AM43 °FClear.1 mph100%30.27 "Hg6 mi
6:50 AM41 °FSunny.1 mph100%30.27 "Hg10 mi
Weather by CustomWeather, © 2015

See weather overviewHow to use our weather pages